Regional Weather Roundup
Issued by NWS

Home | Current Version | Previous Version | Text Only | Print | Product List | Glossary On
Versions: 1 2 3 4 5 6 7 8 9 10 11 12 13 14 15 16 17 18 19 20 21 22 23 24 25 26 27 28 29 30 31 32 33 34 35 36 37 38 39 40 41 42 43 44 45 46 47 48 49 50
000
ASUS44 KOUN 051100
RWROK

WEATHER ROUNDUP FOR OKLAHOMA
NATIONAL WEATHER SERVICE NORMAN OK
600 AM CDT WED AUG 05 2015

NOTE: "FAIR" INDICATES FEW OR NO CLOUDS BELOW 12,000 FEET WITH NO
      SIGNIFICANT WEATHER AND/OR OBSTRUCTIONS TO VISIBILITY.

OKZ001>007-009>012-014-015-017-051200-
NORTHWEST OKLAHOMA AND THE PANHANDLE

CITY           SKY/WX    TMP DP  RH WIND       PRES   REMARKS
GAGE           CLEAR     72  67  84 S8        29.91F
GUYMON         PTCLDY    69  66  90 N8        29.98R
$$

OKZ016-021>023-033>039-044-045-051200-
SOUTHWEST OKLAHOMA

CITY           SKY/WX    TMP DP  RH WIND       PRES   REMARKS
LAWTON/REGL    CLEAR     72  68  87 S3        29.90S
FREDERICK      CLEAR     73  70  90 SE7       29.87S
CLINTON        CLEAR     76  67  73 S12       29.92F
HOBART         CLEAR     75  68  78 S12       29.91S
ALTUS AFB      CLEAR     71  68  88 SE6       29.89F
$$

OKZ018>020-024>031-051200-
CENTRAL OKLAHOMA

CITY           SKY/WX    TMP DP  RH WIND       PRES   REMARKS
OKLAHOMA CITY  PTCLDY    71  70  96 S7        29.90F
OKC/WILEY POST CLEAR     76  69  79 S9        29.89F
STILLWATER     CLEAR     73  70  90 CALM      29.88F
GUTHRIE        CLEAR     75  69  81 S7        29.87F
$$

OKZ008-013-054>072-051200-
NORTHEAST OKLAHOMA

CITY           SKY/WX    TMP DP  RH WIND       PRES   REMARKS
TULSA          MOCLDY    78  73  84 S8        29.88R
TULSA/JONES    MOCLDY    77  72  84 CALM      29.89R
PONCA CITY     CLEAR     74  71  91 MISG      29.88R FOG
MUSKOGEE       CLOUDY    74  71  91 S7        29.92R
$$

OKZ032-040>043-046>053-073>077-051200-
SOUTH CENTRAL/SOUTHEAST OKLAHOMA

CITY           SKY/WX    TMP DP  RH WIND       PRES   REMARKS
MCALESTER      CLEAR     80  68  66 S6        29.92F
$$




USA.gov is the U.S. government's official web portal to all federal, state and local government web resources and services.